| time (UTC) | temp F | wind direction | speed MPH | gust MPH | rain 1hr in | rain 24hr in | rain mn in | humidity % | barometer mb |
| 20260505190356 | 81 | 219 | 1.0 | 0.0 | 0.00 | 0.00 | 0.00 | 41 | 1014.9 |
| 20260505185840 | 81 | 112 | 1.0 | 0.0 | 0.00 | 0.00 | 0.00 | 41 | 1015.0 |
| 20260505185325 | 81 | 155 | 2.0 | 0.0 | 0.00 | 0.00 | 0.00 | 41 | 1015.1 |
| 20260505184829 | 81 | 240 | 2.0 | 0.0 | 0.00 | 0.00 | 0.00 | 41 | 1015.2 |
| 20260505184334 | 82 | 247 | 2.0 | 0.0 | 0.00 | 0.00 | 0.00 | 41 | 1015.3 |
| 20260505183836 | 82 | 165 | 2.0 | 0.0 | 0.00 | 0.00 | 0.00 | 40 | 1015.3 |
| 20260505183340 | 81 | 170 | 1.0 | 0.0 | 0.00 | 0.00 | 0.00 | 41 | 1015.3 |
| 20260505182825 | 81 | 182 | 1.0 | 0.0 | 0.00 | 0.00 | 0.00 | 41 | 1015.4 |
| 20260505182330 | 81 | 248 | 1.0 | 0.0 | 0.00 | 0.00 | 0.00 | 41 | 1015.2 |
| 20260505181835 | 81 | 182 | 1.0 | 0.0 | 0.00 | 0.00 | 0.00 | 40 | 1015.4 |
| 20260505181339 | 80 | 125 | 2.0 | 0.0 | 0.00 | 0.00 | 0.00 | 40 | 1015.2 |
| 20260505180845 | 80 | 164 | 2.0 | 0.0 | 0.00 | 0.00 | 0.00 | 41 | 1015.3 |
| 20260505180324 | 80 | 236 | 2.0 | 0.0 | 0.00 | 0.00 | 0.00 | 42 | 1015.3 |
| 20260505175829 | 81 | 261 | 2.0 | 0.0 | 0.00 | 0.00 | 0.00 | 40 | 1015.4 |
| 20260505175334 | 81 | 142 | 2.0 | 0.0 | 0.00 | 0.00 | 0.00 | 41 | 1015.3 |
| 20260505174839 | 80 | 158 | 2.0 | 0.0 | 0.00 | 0.00 | 0.00 | 42 | 1015.4 |
| 20260505174323 | 80 | 279 | 2.0 | 0.0 | 0.00 | 0.00 | 0.00 | 41 | 1015.4 |
| 20260505173829 | 79 | 227 | 2.0 | 0.0 | 0.00 | 0.00 | 0.00 | 41 | 1015.5 |
| 20260505173333 | 79 | 289 | 2.0 | 0.0 | 0.00 | 0.00 | 0.00 | 43 | 1015.5 |
| 20260505172834 | 78 | 271 | 1.0 | 0.0 | 0.00 | 0.00 | 0.00 | 41 | 1015.5 |
| 20260505172339 | 78 | 233 | 2.0 | 0.0 | 0.00 | 0.00 | 0.00 | 41 | 1015.7 |
| 20260505171823 | 79 | 246 | 2.0 | 0.0 | 0.00 | 0.00 | 0.00 | 40 | 1015.8 |
| 20260505171329 | 79 | 107 | 2.0 | 0.0 | 0.00 | 0.00 | 0.00 | 42 | 1015.9 |
| 20260505170834 | 78 | 326 | 2.0 | 0.0 | 0.00 | 0.00 | 0.00 | 45 | 1016.0 |
| 20260505170338 | 78 | 252 | 2.0 | 0.0 | 0.00 | 0.00 | 0.00 | 45 | 1016.0 |
| 20260505165843 | 78 | 260 | 2.0 | 0.0 | 0.00 | 0.00 | 0.00 | 45 | 1016.1 |
| 20260505165323 | 79 | 238 | 1.0 | 0.0 | 0.00 | 0.00 | 0.00 | 45 | 1016.1 |
| 20260505164828 | 80 | 187 | 1.0 | 0.0 | 0.00 | 0.00 | 0.00 | 43 | 1016.1 |
| 20260505164333 | 79 | 137 | 2.0 | 0.0 | 0.00 | 0.00 | 0.00 | 43 | 1016.1 |
| 20260505163838 | 78 | 246 | 2.0 | 0.0 | 0.00 | 0.00 | 0.00 | 48 | 1016.1 |
| 20260505163342 | 78 | 83 | 1.0 | 0.0 | 0.00 | 0.00 | 0.00 | 49 | 1016.3 |
| 20260505162823 | 78 | 242 | 1.0 | 0.0 | 0.00 | 0.00 | 0.00 | 49 | 1016.3 |
| 20260505162324 | 77 | 92 | 1.0 | 0.0 | 0.00 | 0.00 | 0.00 | 51 | 1016.3 |
| 20260505161829 | 78 | 115 | 1.0 | 0.0 | 0.00 | 0.00 | 0.00 | 51 | 1016.4 |
| 20260505161334 | 78 | 121 | 1.0 | 0.0 | 0.00 | 0.00 | 0.00 | 50 | 1016.4 |
| 20260505160839 | 77 | 260 | 1.0 | 0.0 | 0.00 | 0.00 | 0.00 | 51 | 1016.5 |
| 20260505160323 | 76 | 194 | 2.0 | 0.0 | 0.00 | 0.00 | 0.00 | 52 | 1016.6 |
| 20260505153324 | 75 | 210 | 1.0 | 0.0 | 0.00 | 0.00 | 0.00 | 55 | 1016.9 |
| 20260505152829 | 75 | 193 | 2.0 | 0.0 | 0.00 | 0.00 | 0.00 | 56 | 1016.8 |
| 20260505152355 | 74 | 294 | 1.0 | 0.0 | 0.00 | 0.00 | 0.00 | 57 | 1016.9 |
| 20260505151834 | 74 | 211 | 1.0 | 0.0 | 0.00 | 0.00 | 0.00 | 57 | 1017.0 |
| 20260505151339 | 74 | 123 | 1.0 | 0.0 | 0.00 | 0.00 | 0.00 | 59 | 1016.9 |
| 20260505150824 | 73 | 167 | 2.0 | 0.0 | 0.00 | 0.00 | 0.00 | 58 | 1016.8 |
| 20260505150326 | 73 | 246 | 1.0 | 0.0 | 0.00 | 0.00 | 0.00 | 58 | 1016.9 |
| 20260505140353 | 70 | 261 | 1.0 | 0.0 | 0.00 | 0.00 | 0.00 | 66 | 1016.9 |
| 20260505124829 | 62 | 259 | 1.0 | 0.0 | 0.00 | 0.00 | 0.00 | 79 | 1016.9 |
| 20260505124334 | 61 | 21 | 1.0 | 0.0 | 0.00 | 0.00 | 0.00 | 80 | 1016.9 |
| 20260505123840 | 60 | 246 | 0.0 | 0.0 | 0.00 | 0.00 | 0.00 | 81 | 1017.0 |
| 20260505123324 | 60 | 170 | 0.0 | 0.0 | 0.00 | 0.00 | 0.00 | 82 | 1016.9 |
| 20260505122829 | 59 | 170 | 0.0 | 0.0 | 0.00 | 0.00 | 0.00 | 82 | 1016.8 |
| 20260505122334 | 59 | 170 | 0.0 | 0.0 | 0.00 | 0.00 | 0.00 | 82 | 1016.8 |
| 20260505121839 | 59 | 205 | 0.0 | 0.0 | 0.00 | 0.00 | 0.00 | 82 | 1016.7 |
| 20260505121323 | 58 | 205 | 0.0 | 0.0 | 0.00 | 0.00 | 0.00 | 83 | 1016.7 |
| 20260505120825 | 58 | 205 | 0.0 | 0.0 | 0.00 | 0.00 | 0.00 | 85 | 1016.6 |
| 20260505120329 | 57 | 246 | 0.0 | 0.0 | 0.00 | 0.00 | 0.00 | 86 | 1016.7 |
| 20260505115834 | 56 | 246 | 0.0 | 0.0 | 0.00 | 0.00 | 0.00 | 88 | 1016.8 |
| 20260505115339 | 55 | 246 | 0.0 | 0.0 | 0.00 | 0.00 | 0.00 | 88 | 1016.9 |
| 20260505114824 | 55 | 246 | 0.0 | 0.0 | 0.00 | 0.00 | 0.00 | 89 | 1016.9 |
| 20260505114328 | 54 | 246 | 0.0 | 0.0 | 0.00 | 0.00 | 0.00 | 91 | 1016.7 |
| 20260505113834 | 54 | 246 | 0.0 | 0.0 | 0.00 | 0.00 | 0.00 | 92 | 1016.6 |
| 20260505113355 | 53 | 246 | 0.0 | 0.0 | 0.00 | 0.00 | 0.00 | 92 | 1016.7 |
| 20260505112839 | 52 | 246 | 0.0 | 0.0 | 0.00 | 0.00 | 0.00 | 92 | 1016.6 |
| 20260505112324 | 52 | 246 | 0.0 | 0.0 | 0.00 | 0.00 | 0.00 | 92 | 1016.6 |
| 20260505111829 | 52 | 246 | 0.0 | 0.0 | 0.00 | 0.00 | 0.00 | 92 | 1016.6 |
| 20260505111331 | 51 | 246 | 0.0 | 0.0 | 0.00 | 0.00 | 0.00 | 92 | 1016.5 |
| 20260505110836 | 51 | 246 | 0.0 | 0.0 | 0.00 | 0.00 | 0.00 | 92 | 1016.5 |
| 20260505110336 | 51 | 246 | 0.0 | 0.0 | 0.00 | 0.00 | 0.00 | 93 | 1016.5 |
| 20260505101836 | 51 | 246 | 0.0 | 0.0 | 0.00 | 0.00 | 0.00 | 92 | 1016.1 |
| 20260505101401 | 51 | 246 | 0.0 | 0.0 | 0.00 | 0.00 | 0.00 | 91 | 1015.9 |
| 20260505100845 | 51 | 246 | 0.0 | 0.0 | 0.00 | 0.00 | 0.00 | 91 | 1015.8 |
| 20260505100328 | 51 | 246 | 0.0 | 0.0 | 0.00 | 0.00 | 0.00 | 91 | 1015.8 |
| 20260505095833 | 51 | 246 | 0.0 | 0.0 | 0.00 | 0.00 | 0.00 | 90 | 1015.7 |
| 20260505095335 | 52 | 246 | 0.0 | 0.0 | 0.00 | 0.00 | 0.00 | 90 | 1015.7 |
| 20260505094839 | 52 | 246 | 0.0 | 0.0 | 0.00 | 0.00 | 0.00 | 91 | 1015.7 |
| 20260505094401 | 52 | 246 | 0.0 | 0.0 | 0.00 | 0.00 | 0.00 | 91 | 1015.7 |
| 20260505093825 | 52 | 246 | 0.0 | 0.0 | 0.00 | 0.00 | 0.00 | 90 | 1015.6 |
| 20260505093330 | 52 | 246 | 0.0 | 0.0 | 0.00 | 0.00 | 0.00 | 90 | 1015.6 |
| 20260505092828 | 52 | 246 | 0.0 | 0.0 | 0.00 | 0.00 | 0.00 | 90 | 1015.7 |
| 20260505092330 | 52 | 246 | 0.0 | 0.0 | 0.00 | 0.00 | 0.00 | 90 | 1015.7 |
| 20260505091834 | 52 | 246 | 0.0 | 0.0 | 0.00 | 0.00 | 0.00 | 89 | 1015.6 |
| 20260505091339 | 52 | 246 | 0.0 | 0.0 | 0.00 | 0.00 | 0.00 | 89 | 1015.6 |
| 20260505090824 | 53 | 246 | 0.0 | 0.0 | 0.00 | 0.00 | 0.00 | 89 | 1015.6 |
| 20260505090329 | 53 | 246 | 0.0 | 0.0 | 0.00 | 0.00 | 0.00 | 88 | 1015.5 |
| 20260505085833 | 53 | 246 | 0.0 | 0.0 | 0.00 | 0.00 | 0.00 | 88 | 1015.5 |
| 20260505085359 | 53 | 246 | 0.0 | 0.0 | 0.00 | 0.00 | 0.00 | 88 | 1015.5 |
| 20260505084838 | 53 | 246 | 0.0 | 0.0 | 0.00 | 0.00 | 0.00 | 87 | 1015.5 |
| 20260505084323 | 53 | 246 | 0.0 | 0.0 | 0.00 | 0.00 | 0.00 | 87 | 1015.5 |
| 20260505083828 | 53 | 246 | 0.0 | 0.0 | 0.00 | 0.00 | 0.00 | 87 | 1015.5 |
| 20260505083354 | 53 | 246 | 0.0 | 0.0 | 0.00 | 0.00 | 0.00 | 87 | 1015.5 |
| 20260505082838 | 54 | 246 | 0.0 | 0.0 | 0.00 | 0.00 | 0.00 | 86 | 1015.5 |
| 20260505082323 | 54 | 246 | 0.0 | 0.0 | 0.00 | 0.00 | 0.00 | 86 | 1015.4 |
| 20260505081827 | 54 | 246 | 0.0 | 0.0 | 0.00 | 0.00 | 0.00 | 86 | 1015.4 |
| 20260505081328 | 54 | 246 | 0.0 | 0.0 | 0.00 | 0.00 | 0.00 | 85 | 1015.3 |
| 20260505080833 | 54 | 246 | 0.0 | 0.0 | 0.00 | 0.00 | 0.00 | 85 | 1015.3 |
| 20260505080338 | 54 | 246 | 0.0 | 0.0 | 0.00 | 0.00 | 0.00 | 84 | 1015.3 |
| 20260505075843 | 54 | 246 | 0.0 | 0.0 | 0.00 | 0.00 | 0.00 | 84 | 1015.3 |
| 20260505075408 | 55 | 246 | 0.0 | 0.0 | 0.00 | 0.00 | 0.00 | 84 | 1015.3 |
| 20260505074909 | 55 | 246 | 0.0 | 0.0 | 0.00 | 0.00 | 0.00 | 84 | 1015.2 |
| 20260505074352 | 55 | 246 | 0.0 | 0.0 | 0.00 | 0.00 | 0.00 | 83 | 1015.2 |
| 20260505073838 | 55 | 246 | 0.0 | 0.0 | 0.00 | 0.00 | 0.00 | 82 | 1015.2 |
| 20260505073342 | 55 | 246 | 0.0 | 0.0 | 0.00 | 0.00 | 0.00 | 82 | 1015.1 |
| 20260505072908 | 56 | 246 | 0.0 | 0.0 | 0.00 | 0.00 | 0.00 | 82 | 1015.2 |
| 20260505072352 | 56 | 246 | 0.0 | 0.0 | 0.00 | 0.00 | 0.00 | 81 | 1015.1 |
| 20260505071835 | 56 | 246 | 0.0 | 0.0 | 0.00 | 0.00 | 0.00 | 81 | 1015.0 |
| 20260505071335 | 56 | 246 | 0.0 | 0.0 | 0.00 | 0.00 | 0.00 | 80 | 1015.0 |
| 20260505070840 | 57 | 246 | 0.0 | 0.0 | 0.00 | 0.00 | 0.00 | 80 | 1015.0 |
| 20260505070342 | 57 | 246 | 0.0 | 0.0 | 0.00 | 0.00 | 0.00 | 79 | 1015.0 |
| 20260505065847 | 57 | 246 | 0.0 | 0.0 | 0.00 | 0.00 | 0.00 | 79 | 1015.1 |
| 20260505065352 | 57 | 246 | 0.0 | 0.0 | 0.00 | 0.00 | 0.00 | 78 | 1015.1 |
| 20260505064837 | 58 | 246 | 0.0 | 0.0 | 0.00 | 0.00 | 0.00 | 76 | 1015.1 |
| 20260505064341 | 58 | 246 | 0.0 | 0.0 | 0.00 | 0.00 | 0.00 | 76 | 1015.0 |
| 20260505063842 | 58 | 246 | 0.0 | 0.0 | 0.00 | 0.00 | 0.00 | 76 | 1015.1 |
| 20260505063406 | 58 | 246 | 0.0 | 0.0 | 0.00 | 0.00 | 0.00 | 76 | 1015.1 |
| 20260505062850 | 58 | 246 | 0.0 | 0.0 | 0.00 | 0.00 | 0.00 | 76 | 1015.2 |
| 20260505062335 | 58 | 246 | 0.0 | 0.0 | 0.00 | 0.00 | 0.00 | 75 | 1015.1 |
| 20260505061840 | 59 | 246 | 0.0 | 0.0 | 0.00 | 0.00 | 0.00 | 75 | 1015.1 |
| 20260505061345 | 59 | 246 | 0.0 | 0.0 | 0.00 | 0.00 | 0.00 | 74 | 1015.1 |
| 20260505060906 | 59 | 246 | 0.0 | 0.0 | 0.00 | 0.00 | 0.00 | 74 | 1015.2 |
| 20260505060349 | 59 | 246 | 0.0 | 0.0 | 0.00 | 0.00 | 0.00 | 73 | 1015.2 |
| 20260505055853 | 60 | 246 | 0.0 | 0.0 | 0.00 | 0.00 | 0.00 | 72 | 1015.2 |
| 20260505055338 | 60 | 246 | 0.0 | 0.0 | 0.00 | 0.00 | 0.00 | 72 | 1015.3 |
| 20260505054843 | 60 | 246 | 0.0 | 0.0 | 0.00 | 0.00 | 0.00 | 72 | 1015.3 |
| 20260505054348 | 60 | 246 | 0.0 | 0.0 | 0.00 | 0.00 | 0.00 | 71 | 1015.3 |
| 20260505053853 | 60 | 246 | 0.0 | 0.0 | 0.00 | 0.00 | 0.00 | 70 | 1015.4 |
| 20260505053414 | 61 | 246 | 0.0 | 0.0 | 0.00 | 0.00 | 0.00 | 70 | 1015.5 |
| 20260505052838 | 61 | 246 | 0.0 | 0.0 | 0.00 | 0.00 | 0.00 | 69 | 1015.4 |
| 20260505052343 | 61 | 246 | 0.0 | 0.0 | 0.00 | 0.00 | 0.00 | 68 | 1015.5 |
| 20260505051847 | 61 | 246 | 0.0 | 0.0 | 0.00 | 0.00 | 0.00 | 68 | 1015.6 |
| 20260505051351 | 62 | 246 | 0.0 | 0.0 | 0.00 | 0.00 | 0.00 | 68 | 1015.6 |
| 20260505050836 | 62 | 246 | 0.0 | 0.0 | 0.00 | 0.00 | 0.00 | 67 | 1015.7 |
| 20260505050339 | 62 | 246 | 0.0 | 0.0 | 0.00 | 0.00 | 0.00 | 66 | 1015.7 |
| 20260505041336 | 64 | 203 | 0.0 | 0.0 | 0.00 | 0.00 | 0.00 | 65 | 1015.7 |
| 20260505040841 | 64 | 101 | 0.0 | 0.0 | 0.00 | 0.00 | 0.00 | 65 | 1015.6 |
| 20260505040345 | 64 | 101 | 0.0 | 0.0 | 0.00 | 0.00 | 0.00 | 65 | 1015.7 |
| 20260505035850 | 64 | 96 | 0.0 | 0.0 | 0.00 | 0.00 | 0.00 | 64 | 1015.6 |
| 20260505035415 | 64 | 96 | 0.0 | 0.0 | 0.00 | 0.00 | 0.00 | 64 | 1015.6 |
| 20260505034834 | 64 | 96 | 0.0 | 0.0 | 0.00 | 0.00 | 0.00 | 64 | 1015.6 |
| 20260505034339 | 65 | 96 | 0.0 | 0.0 | 0.00 | 0.00 | 0.00 | 63 | 1015.6 |
| 20260505033844 | 65 | 85 | 0.0 | 0.0 | 0.00 | 0.00 | 0.00 | 63 | 1015.6 |
| 20260505033410 | 65 | 85 | 0.0 | 0.0 | 0.00 | 0.00 | 0.00 | 63 | 1015.7 |
| 20260505032851 | 65 | 84 | 0.0 | 0.0 | 0.00 | 0.00 | 0.00 | 62 | 1015.7 |
| 20260505032336 | 65 | 123 | 0.0 | 0.0 | 0.00 | 0.00 | 0.00 | 61 | 1015.8 |
| 20260505031856 | 65 | 153 | 0.0 | 0.0 | 0.00 | 0.00 | 0.00 | 61 | 1015.7 |
| 20260505031340 | 65 | 153 | 0.0 | 0.0 | 0.00 | 0.00 | 0.00 | 61 | 1015.7 |
| 20260505030845 | 66 | 285 | 0.0 | 0.0 | 0.00 | 0.00 | 0.00 | 60 | 1015.6 |
| 20260505030349 | 66 | 285 | 0.0 | 0.0 | 0.00 | 0.00 | 0.00 | 60 | 1015.7 |
| 20260505025854 | 66 | 9 | 0.0 | 0.0 | 0.00 | 0.00 | 0.00 | 60 | 1015.7 |
| 20260505025339 | 67 | 283 | 0.0 | 0.0 | 0.00 | 0.00 | 0.00 | 59 | 1015.6 |
| 20260505024843 | 67 | 192 | 0.0 | 0.0 | 0.00 | 0.00 | 0.00 | 58 | 1015.5 |
| 20260505024345 | 67 | 277 | 1.0 | 0.0 | 0.00 | 0.00 | 0.00 | 58 | 1015.5 |
| 20260505023850 | 67 | 212 | 0.0 | 0.0 | 0.00 | 0.00 | 0.00 | 57 | 1015.4 |
| 20260505023415 | 67 | 336 | 0.0 | 0.0 | 0.00 | 0.00 | 0.00 | 57 | 1015.4 |
| 20260505022858 | 67 | 346 | 0.0 | 0.0 | 0.00 | 0.00 | 0.00 | 55 | 1015.4 |
| 20260505022342 | 67 | 293 | 0.0 | 0.0 | 0.00 | 0.00 | 0.00 | 55 | 1015.3 |
| 20260505021906 | 67 | 294 | 0.0 | 0.0 | 0.00 | 0.00 | 0.00 | 54 | 1015.3 |
| 20260505021346 | 67 | 312 | 0.0 | 0.0 | 0.00 | 0.00 | 0.00 | 52 | 1015.2 |
| 20260505020848 | 68 | 313 | 0.0 | 0.0 | 0.00 | 0.00 | 0.00 | 52 | 1015.1 |
| 20260505020412 | 68 | 314 | 0.0 | 0.0 | 0.00 | 0.00 | 0.00 | 51 | 1015.1 |
| 20260505015856 | 68 | 313 | 0.0 | 0.0 | 0.00 | 0.00 | 0.00 | 50 | 1015.2 |
| 20260505015339 | 68 | 313 | 0.0 | 0.0 | 0.00 | 0.00 | 0.00 | 49 | 1015.1 |
| 20260505014841 | 68 | 313 | 0.0 | 0.0 | 0.00 | 0.00 | 0.00 | 48 | 1015.0 |
| 20260505014341 | 68 | 250 | 0.0 | 0.0 | 0.00 | 0.00 | 0.00 | 48 | 1015.0 |
| 20260505013846 | 68 | 259 | 0.0 | 0.0 | 0.00 | 0.00 | 0.00 | 50 | 1014.9 |
| 20260505013350 | 68 | 259 | 0.0 | 0.0 | 0.00 | 0.00 | 0.00 | 48 | 1014.8 |
| 20260505012855 | 68 | 259 | 0.0 | 0.0 | 0.00 | 0.00 | 0.00 | 48 | 1014.7 |
| 20260505012340 | 69 | 259 | 0.0 | 0.0 | 0.00 | 0.00 | 0.00 | 48 | 1014.6 |
| 20260505011844 | 69 | 259 | 0.0 | 0.0 | 0.00 | 0.00 | 0.00 | 47 | 1014.4 |
| 20260505011405 | 69 | 259 | 0.0 | 0.0 | 0.00 | 0.00 | 0.00 | 47 | 1014.4 |
| 20260505010848 | 69 | 259 | 0.0 | 0.0 | 0.00 | 0.00 | 0.00 | 47 | 1014.3 |
| 20260505010353 | 69 | 259 | 0.0 | 0.0 | 0.00 | 0.00 | 0.00 | 47 | 1014.3 |
| 20260505005837 | 70 | 259 | 0.0 | 0.0 | 0.00 | 0.00 | 0.00 | 46 | 1014.2 |
| 20260505005342 | 70 | 259 | 0.0 | 0.0 | 0.00 | 0.00 | 0.00 | 46 | 1014.2 |
| 20260505004846 | 70 | 259 | 0.0 | 0.0 | 0.00 | 0.00 | 0.00 | 46 | 1014.1 |
| 20260505004351 | 70 | 259 | 0.0 | 0.0 | 0.00 | 0.00 | 0.00 | 45 | 1014.1 |
| 20260505003852 | 71 | 259 | 0.0 | 0.0 | 0.00 | 0.00 | 0.00 | 45 | 1014.1 |
| 20260505003336 | 71 | 259 | 0.0 | 0.0 | 0.00 | 0.00 | 0.00 | 44 | 1014.1 |
| 20260505002841 | 71 | 259 | 0.0 | 0.0 | 0.00 | 0.00 | 0.00 | 44 | 1014.0 |
| 20260505002346 | 72 | 259 | 0.0 | 0.0 | 0.00 | 0.00 | 0.00 | 43 | 1014.0 |
| 20260505001910 | 72 | 259 | 0.0 | 0.0 | 0.00 | 0.00 | 0.00 | 43 | 1013.9 |
| 20260505001334 | 72 | 294 | 0.0 | 0.0 | 0.00 | 0.00 | 0.00 | 42 | 1013.8 |
| 20260505000839 | 72 | 294 | 0.0 | 0.0 | 0.00 | 0.00 | 0.00 | 42 | 1013.9 |
| 20260505000340 | 73 | 249 | 0.0 | 0.0 | 0.00 | 0.00 | 0.00 | 41 | 1013.8 |
| 20260504235841 | 73 | 249 | 0.0 | 0.0 | 0.00 | 0.00 | 0.00 | 40 | 1013.8 |
| 20260504235407 | 74 | 249 | 0.0 | 0.0 | 0.00 | 0.00 | 0.00 | 40 | 1013.6 |
| 20260504234850 | 74 | 249 | 0.0 | 0.0 | 0.00 | 0.00 | 0.00 | 42 | 1013.6 |
| 20260504234335 | 74 | 161 | 0.0 | 0.0 | 0.00 | 0.00 | 0.00 | 39 | 1013.6 |
| 20260504233840 | 74 | 242 | 0.0 | 0.0 | 0.00 | 0.00 | 0.00 | 39 | 1013.6 |
| 20260504233341 | 75 | 238 | 0.0 | 0.0 | 0.00 | 0.00 | 0.00 | 38 | 1013.5 |
| 20260504232846 | 75 | 254 | 0.0 | 0.0 | 0.00 | 0.00 | 0.00 | 38 | 1013.4 |
| 20260504232411 | 75 | 154 | 0.0 | 0.0 | 0.00 | 0.00 | 0.00 | 38 | 1013.4 |
| 20260504231834 | 76 | 189 | 0.0 | 0.0 | 0.00 | 0.00 | 0.00 | 38 | 1013.4 |
| 20260504231339 | 76 | 250 | 1.0 | 0.0 | 0.00 | 0.00 | 0.00 | 39 | 1013.4 |
| 20260504230845 | 76 | 271 | 1.0 | 0.0 | 0.00 | 0.00 | 0.00 | 37 | 1013.4 |
| 20260504230349 | 76 | 140 | 1.0 | 0.0 | 0.00 | 0.00 | 0.00 | 36 | 1013.2 |
| 20260504225850 | 77 | 163 | 1.0 | 0.0 | 0.00 | 0.00 | 0.00 | 35 | 1013.2 |
| 20260504225415 | 77 | 161 | 1.0 | 0.0 | 0.00 | 0.00 | 0.00 | 34 | 1013.3 |
| 20260504224838 | 77 | 175 | 1.0 | 0.0 | 0.00 | 0.00 | 0.00 | 33 | 1013.2 |
| 20260504224343 | 77 | 167 | 1.0 | 0.0 | 0.00 | 0.00 | 0.00 | 33 | 1013.2 |
| 20260504223849 | 77 | 188 | 1.0 | 0.0 | 0.00 | 0.00 | 0.00 | 35 | 1013.3 |
| 20260504223353 | 78 | 244 | 1.0 | 0.0 | 0.00 | 0.00 | 0.00 | 36 | 1013.3 |
| 20260504222838 | 78 | 265 | 1.0 | 0.0 | 0.00 | 0.00 | 0.00 | 33 | 1013.2 |
| 20260504222339 | 78 | 157 | 1.0 | 0.0 | 0.00 | 0.00 | 0.00 | 34 | 1013.3 |
| 20260504221843 | 78 | 257 | 1.0 | 0.0 | 0.00 | 0.00 | 0.00 | 32 | 1013.2 |
| 20260504221349 | 78 | 250 | 1.0 | 0.0 | 0.00 | 0.00 | 0.00 | 31 | 1013.3 |
| 20260504220854 | 79 | 258 | 1.0 | 0.0 | 0.00 | 0.00 | 0.00 | 33 | 1013.3 |
| 20260504220338 | 79 | 240 | 1.0 | 0.0 | 0.00 | 0.00 | 0.00 | 32 | 1013.3 |
| 20260504215903 | 78 | 159 | 1.0 | 0.0 | 0.00 | 0.00 | 0.00 | 33 | 1013.3 |
| 20260504215343 | 79 | 163 | 1.0 | 0.0 | 0.00 | 0.00 | 0.00 | 32 | 1013.3 |
| 20260504214848 | 79 | 166 | 1.0 | 0.0 | 0.00 | 0.00 | 0.00 | 33 | 1013.3 |
| 20260504214352 | 79 | 142 | 1.0 | 0.0 | 0.00 | 0.00 | 0.00 | 30 | 1013.2 |
| 20260504213838 | 79 | 254 | 2.0 | 0.0 | 0.00 | 0.00 | 0.00 | 32 | 1013.3 |
| 20260504213342 | 79 | 261 | 2.0 | 0.0 | 0.00 | 0.00 | 0.00 | 32 | 1013.3 |
| 20260504212847 | 79 | 183 | 1.0 | 0.0 | 0.00 | 0.00 | 0.00 | 32 | 1013.3 |
| 20260504212352 | 79 | 263 | 2.0 | 0.0 | 0.00 | 0.00 | 0.00 | 34 | 1013.2 |
| 20260504211849 | 79 | 269 | 1.0 | 0.0 | 0.00 | 0.00 | 0.00 | 31 | 1013.3 |
| 20260504211333 | 79 | 150 | 1.0 | 0.0 | 0.00 | 0.00 | 0.00 | 31 | 1013.3 |
| 20260504210839 | 80 | 213 | 2.0 | 0.0 | 0.00 | 0.00 | 0.00 | 32 | 1013.3 |
| 20260504210343 | 80 | 161 | 1.0 | 0.0 | 0.00 | 0.00 | 0.00 | 31 | 1013.3 |
| 20260504205848 | 80 | 149 | 2.0 | 0.0 | 0.00 | 0.00 | 0.00 | 32 | 1013.3 |
| 20260504205414 | 79 | 252 | 2.0 | 0.0 | 0.00 | 0.00 | 0.00 | 31 | 1013.3 |
| 20260504204837 | 79 | 265 | 2.0 | 0.0 | 0.00 | 0.00 | 0.00 | 31 | 1013.4 |
| 20260504204358 | 79 | 355 | 2.0 | 0.0 | 0.00 | 0.00 | 0.00 | 31 | 1013.4 |
| 20260504203902 | 80 | 306 | 1.0 | 0.0 | 0.00 | 0.00 | 0.00 | 33 | 1013.5 |
| 20260504203346 | 80 | 167 | 2.0 | 0.0 | 0.00 | 0.00 | 0.00 | 32 | 1013.4 |
| 20260504202850 | 80 | 140 | 1.0 | 0.0 | 0.00 | 0.00 | 0.00 | 32 | 1013.4 |
| 20260504202335 | 80 | 161 | 1.0 | 0.0 | 0.00 | 0.00 | 0.00 | 32 | 1013.5 |
| 20260504201840 | 80 | 169 | 1.0 | 0.0 | 0.00 | 0.00 | 0.00 | 31 | 1013.6 |
| 20260504201341 | 80 | 261 | 1.0 | 0.0 | 0.00 | 0.00 | 0.00 | 32 | 1013.5 |
| 20260504200846 | 80 | 146 | 1.0 | 0.0 | 0.00 | 0.00 | 0.00 | 30 | 1013.5 |
| 20260504200350 | 80 | 146 | 1.0 | 0.0 | 0.00 | 0.00 | 0.00 | 31 | 1013.5 |
| 20260504195915 | 80 | 116 | 1.0 | 0.0 | 0.00 | 0.00 | 0.00 | 31 | 1013.6 |
| 20260504195413 | 80 | 239 | 2.0 | 0.0 | 0.00 | 0.00 | 0.00 | 30 | 1013.6 |
| 20260504194909 | 79 | 194 | 2.0 | 0.0 | 0.00 | 0.00 | 0.00 | 30 | 1013.6 |
| 20260504194353 | 80 | 292 | 2.0 | 0.0 | 0.00 | 0.00 | 0.00 | 30 | 1013.8 |
| 20260504193837 | 80 | 252 | 2.0 | 0.0 | 0.00 | 0.00 | 0.00 | 29 | 1013.8 |
| 20260504193342 | 80 | 195 | 1.0 | 0.0 | 0.00 | 0.00 | 0.00 | 31 | 1013.8 |
| 20260504192846 | 80 | 258 | 1.0 | 0.0 | 0.00 | 0.00 | 0.00 | 28 | 1013.9 |
| 20260504192352 | 81 | 235 | 2.0 | 0.0 | 0.00 | 0.00 | 0.00 | 28 | 1014.1 |
| 20260504191836 | 80 | 123 | 1.0 | 0.0 | 0.00 | 0.00 | 0.00 | 28 | 1014.1 |
| 20260504191357 | 81 | 128 | 1.0 | 0.0 | 0.00 | 0.00 | 0.00 | 29 | 1014.2 |
| 20260504190840 | 80 | 126 | 2.0 | 0.0 | 0.00 | 0.00 | 0.00 | 29 | 1014.3 |